Text 2716, 181 rader
Skriven 2009-01-08 20:30:27 av Amsat List (1:323/120.0)
Ärende: [keps] orb09008.2l.amsa
================================
[keps] orb09008.2l.amsa
Return-Path: <keps-bounces@amsat.org>
X-Rcpt: craig.healy@chowda.com
X-UIDL: 1231464629.121
SB KEPS @ AMSAT $ORB09008.N
2Line Orbital Elements 09008.AMSAT
HR AMSAT ORBITAL ELEMENTS FOR AMATEUR SATELLITES IN NASA FORMAT
FROM WA5QGD FORT WORTH,TX January 8, 2009
Send Subscribe/unsubscribe to KEPS at
http://www.amsat.org/mailman/listinfo/keps
BID: ORB09008.N
DECODE 2-LINE ELSETS WITH THE FOLLOWING KEY:
1 AAAAAU 00 0 0 BBBBB.BBBBBBBB .CCCCCCCC 00000-0 00000-0 0 DDDZ
2 AAAAA EEE.EEEE FFF.FFFF GGGGGGG HHH.HHHH III.IIII JJ.JJJJJJJJKKKKKZ
KEY: A-CATALOGNUM B-EPOCHTIME C-DECAY D-ELSETNUM E-INCLINATION F-RAAN
G-ECCENTRICITY H-ARGPERIGEE I-MNANOM J-MNMOTION K-ORBITNUM Z-CHECKSUM
TO ALL RADIO AMATEURS BT
AO-07
1 07530U 74089B 09006.95961729 -.00000027 00000-0 10000-3 0 03736
2 07530 101.4447 037.4581 0011897 223.7812 136.2316 12.53575070562513
AO-10
1 14129U 83058B 09005.60011086 -.00000019 00000-0 10000-3 0 6056
2 14129 026.0280 177.7445 5962495 187.3956 156.7605 02.05870582192279
UO-11
1 14781U 84021B 09008.55873766 .00000258 00000-0 41610-4 0 8563
2 14781 098.1304 051.3810 0009851 128.0010 232.2147 14.79688934334225
RS-15
1 23439U 94085A 09006.91589098 -.00000039 00000-0 10000-3 0 01877
2 23439 064.8125 165.6032 0145950 083.0728 278.6772 11.27553556577934
FO-29
1 24278U 96046B 09008.85811968 -.00000102 00000-0 -68888-4 0 9460
2 24278 098.5769 264.1059 0351119 043.1880 319.6234 13.52941274612207
SO-33
1 25509U 98061B 09007.99168992 .00000165 00000-0 22197-4 0 3625
2 25509 031.4325 238.3166 0354406 017.7762 343.4917 14.28234870532912
AO-40
1 26609U 00072B 09007.26037294 .00000045 00000-0 10000-3 0 1761
2 26609 008.4375 039.3531 7942732 163.0809 260.0040 01.25583696 37600
VO-52
1 28650U 05017B 09007.37781230 -.00000072 00000-0 -25334-5 0 1233
2 28650 097.7659 074.1046 0026966 192.2115 167.8399 14.81540118198833
PO-63
1 29712U 07001D 09008.30966953 .00000527 00000-0 75593-4 0 1299
2 29712 097.8516 068.3832 0015270 076.1512 284.1397 14.80403431107815
AO-16
1 20439U 90005D 09008.59463749 .00000021 00000-0 23252-4 0 5050
2 20439 098.2578 344.4448 0010048 288.3877 071.6223 14.31813080990318
LO-19
1 20442U 90005G 09006.58172738 .00000049 00000-0 33370-4 0 04282
2 20442 098.2220 350.3962 0011048 290.7968 069.2037 14.32049877990189
AO-27
1 22825U 93061C 09008.04121627 .00000099 00000-0 55457-4 0 1471
2 22825 098.4154 326.6950 0008839 022.2426 337.9170 14.29256406797034
IO-26
1 22826U 93061D 09008.89946031 .00000013 00000-0 21744-4 0 8665
2 22826 098.4088 328.3428 0009392 015.9583 344.1903 14.29506541797254
GO-32
1 25397U 98043D 09006.78950788 -.00000194 00000-0 -67875-4 0 07910
2 25397 098.3431 037.6538 0001605 041.7241 318.4044 14.23152321545179
NO-44
1 26931U 01043C 09008.62914580 -.00000105 00000-0 -86825-5 0 691
2 26931 067.0509 115.4035 0005874 255.9198 104.1206 14.29544173379779
SO-50
1 27607U 02058C 09008.53816471 -.00000068 00000-0 11803-4 0 7854
2 27607 064.5570 149.9676 0081596 239.5538 119.7430 14.71406649325183
CO-55
1 27844U 03031E 09008.53625662 .00000032 00000-0 35448-4 0 4835
2 27844 098.7157 019.9452 0009100 242.9499 117.0749 14.20616255286594
CO-57
1 27848U 03031J 09006.94199549 .00000016 00000-0 27947-4 0 04301
2 27848 098.7157 017.4399 0009147 253.3283 106.6893 14.20421358286333
AO-51
1 28375U 04025K 09008.01082332 .00000000 00000-0 12913-4 0 2861
2 28375 098.0570 026.9131 0083003 251.7393 107.4750 14.40629701237899
CO-56
1 28941U 06005C 09008.10141860 .00026651 27460-5 14821-3 0 7051
2 28941 098.1234 154.8814 0127914 011.0507 349.3462 15.69003479162039
CP3
1 31128U 07012M 09006.83332310 -.00000046 00000-0 00000-0 0 05259
2 31128 098.0155 067.3746 0103899 065.4384 295.7618 14.52007682091483
CP4
1 31132U 07012Q 09006.90368134 .00000003 00000-0 10823-4 0 05121
2 31132 098.0199 070.6265 0086738 056.1524 304.7884 14.55173256091574
CO-65
1 32785U 08021C 09006.09180604 .00000305 00000-0 45750-4 0 02580
2 32785 097.9692 071.2234 0014627 194.2315 165.8491 14.81435706037444
NOAA-10
1 16969U 86073A 09006.79137733 -.00000055 00000-0 -43986-5 0 04475
2 16969 098.7087 034.1934 0011718 310.4848 049.5283 14.27376831160484
NOAA-11
1 19531U 88089A 09007.82265385 -.00000246 00000-0 -10445-3 0 4667
2 19531 098.7904 100.2354 0011164 202.2457 157.8237 14.14883874 46841
NOAA-12
1 21263U 91032A 09006.95805527 .00000024 00000-0 29106-4 0 09858
2 21263 098.7720 014.9459 0011517 254.3739 105.6170 14.25561643917429
MET-3/5
1 21655U 91056A 09006.94269682 .00000051 00000-0 10000-3 0 06538
2 21655 082.5535 320.4202 0012251 222.0200 137.9964 13.17017883836400
MET-2/21
1 22782U 93055A 09006.91877798 .00000071 00000-0 50789-4 0 03450
2 22782 082.5503 309.9449 0024080 079.2531 281.1333 13.83633620775303
OKEAN-4
1 23317U 94066A 09008.56066499 .00000274 00000-0 30943-4 0 7953
2 23317 082.5399 123.4506 0022400 166.4496 193.7331 14.82666300768711
NOAA-14
1 23455U 94089A 09006.66720456 -.00000098 00000-0 -28169-4 0 04668
2 23455 098.9266 084.8132 0008552 289.0286 070.9955 14.13755561723108
NOAA-15
1 25338U 98030A 09008.00438538 .00000185 00000-0 97668-4 0 7665
2 25338 098.5730 000.8361 0010894 160.1839 199.9774 14.24741111553963
RESURS
1 25394U 98043A 09008.74943908 -.00000009 00000-0 14014-4 0 1130
2 25394 098.3601 049.0500 0001565 353.2846 006.8312 14.24178317545707
FENGYUN1
1 25730U 99025A 09008.81173930 .00000084 00000-0 74311-4 0 6574
2 25730 098.7430 343.8571 0022691 308.8661 051.0485 14.07919194497898
OKEAN-0
1 25860U 99039A 09008.86904590 .00000028 00000-0 11490-4 0 5691
2 25860 097.7695 356.5369 0001245 038.7719 321.3590 14.73552993509689
NOAA-16
1 26536U 00055A 09008.06398156 -.00000117 00000-0 -37990-4 0 2421
2 26536 099.1726 007.8953 0010682 014.9053 345.2454 14.12505822427694
NOAA-17
1 27453U 02032A 09006.95960001 .00000016 00000-0 25604-4 0 02534
2 27453 098.5099 071.4127 0011100 230.7468 129.2692 14.24030904339809
NOAA-18
1 28654U 05018A 09006.68136719 .00000356 00000-0 22142-3 0 07351
2 28654 098.8916 311.3189 0015198 098.2154 262.0733 14.11223988187173
HUBBLE
1 20580U 90037B 09006.62127251 .00000320 00000-0 11936-4 0 03134
2 20580 028.4695 076.3133 0003408 026.9989 333.0778 15.00444818825564
PO-34
1 25520U 98064B 09006.91096258 .00000370 00000-0 84133-5 0 01622
2 25520 028.4611 254.7908 0005165 345.2726 014.7705 15.17280245564137
ISS
1 25544U 98067A 09006.87881944 .00012711 00000-0 99260-4 0 00155
2 25544 051.6428 052.6262 0007025 167.1222 175.4681 15.72061961580571
CO-58
1 28895U 05043F 09008.62713057 .00000085 00000-0 27374-4 0 2052
2 28895 098.0803 263.5303 0018838 125.3882 234.9072 14.59731250170452
FALCON
1 30776U 07006E 09006.43547985 .00000315 00000-0 25949-4 0 04858
2 30776 035.4349 000.7082 0001686 318.6051 041.4537 15.03141255100748
MAST
1 31126U 07012K 09008.59916096 .00000113 00000-0 36037-4 0 4998
2 31126 098.0142 070.5299 0095603 055.5270 305.4966 14.53470691 91854
CAPE1
1 31130U 07012P 09008.82426214 .00000101 00000-0 34002-4 0 4983
2 31130 098.0157 069.2883 0103869 059.3177 301.8201 14.52023715 91561
COMPASS
1 32787U 08021E 09008.71436630 .00000012 00000-0 83324-5 0 2479
2 32787 097.9654 073.7277 0015637 186.8053 173.2934 14.81527992 37833
AAUSAT2
1 32788U 08021F 09008.15493659 .00000496 00000-0 69736-4 0 2489
2 32788 097.9664 073.2071 0015256 189.1112 170.9830 14.81646432 37752
DO-64
1 32789U 08021G 09008.84771038 .00000143 00000-0 25021-4 0 2608
2 32789 097.9694 073.9700 0015723 185.9410 174.1606 14.81582286 37850
CO-66
1 32791U 08021J 09006.10527293 .00000172 00000-0 28814-4 0 02447
2 32791 097.9682 071.1616 0015845 192.8951 167.1859 14.81370384037416
RS-30
1 32953U 08025A 09006.48591155 .00000010 00000-0 00000-0 0 02039
2 32953 082.5017 357.1626 0019184 167.5478 192.6078 12.42999279028308
/EX
_______________________________________________
Via the Keps mailing list courtesy of AMSAT-NA
http://amsat.org/mailman/listinfo/keps
--- ViaMAIL!/WC v1.60d
* Origin: Chowdanet (401-724-4410) telnet://chowdanet.com (1:323/120)
|